Location: Binningen
(47.7924°N, 8.7261°E)
Time: 11:41:27
(UTC+00:00)

Cosmos 1733 Rocket - Pass Details

Date: 04 October 2021
Orbit: 604 x 627 km, 82.5° (Epoch: 22 October)

Event Time Altitude Azimuth Distance (km) Brightness Sun altitude
Rises 02:19:20 0° 2° (N) 2,901 6.9 -31.3°
Reaches altitude 10° 02:22:03 10° 19° (NNE) 1,994 6.2 -30.9°
Maximum altitude 02:25:24 21° 68° (ENE) 1,415 5.5 -30.4°
Drops below altitude 10° 02:28:45 10° 118° (ESE) 1,993 6.0 -29.9°
Sets 02:31:27 0° 134° (SE) 2,897 6.7 -29.5°
